EW0072 Weather Reports


Display with metric or nautical units.
time (UTC)temp
F
wind
direction
speed
MPH
gust
MPH
rain 1hr
in
rain 24hr
in
rain mn
in
humidity
%
barometer
mb
20240417204543 70 360 4.0 9.0 0.00 0.00 0.00 21 995.5
20240417203045 70 360 3.0 10.0 0.00 0.00 0.00 20 995.5
20240417201524 70 360 1.0 5.0 0.00 0.00 0.00 20 995.7
20240417200023 71 360 5.0 10.0 0.00 0.00 0.00 20 995.9
20240417194518 72 351 4.0 9.0 0.00 0.00 0.00 20 996.2
20240417193015 70 360 0.0 12.0 0.00 0.00 0.00 20 996.3
20240417191513 71 360 5.0 8.0 0.00 0.00 0.00 21 996.5
20240417190012 70 360 1.0 7.0 0.00 0.00 0.00 20 996.8
20240417184510 69 360 2.0 8.0 0.00 0.00 0.00 20 997.4
20240417183005 70 360 1.0 10.0 0.00 0.00 0.00 20 997.5
20240417181554 69 360 1.0 8.0 0.00 0.00 0.00 20 997.8
20240417180047 69 360 2.0 9.0 0.00 0.00 0.00 19 998.0
20240417174528 68 360 4.0 9.0 0.00 0.00 0.00 20 998.4
20240417173035 68 360 2.0 6.0 0.00 0.00 0.00 20 998.6
20240417171523 67 360 1.0 7.0 0.00 0.00 0.00 20 998.8
20240417170024 67 360 4.0 8.0 0.00 0.00 0.00 19 999.1
20240417164517 67 176 0.0 6.0 0.00 0.00 0.00 21 999.4
20240417163015 65 360 6.0 12.0 0.00 0.00 0.00 21 999.5
20240417161512 66 360 4.0 7.0 0.00 0.00 0.00 22 999.7
20240417160007 64 89 2.0 5.0 0.00 0.00 0.00 24 1000.2
20240417154556 64 81 4.0 6.0 0.00 0.00 0.00 27 1000.3
20240417153101 63 360 0.0 0.0 0.00 0.00 0.00 29 1000.5
20240417151555 60 360 0.0 3.0 0.00 0.00 0.00 30 1000.3
20240417150043 57 360 0.0 0.0 0.00 0.00 0.00 36 1000.6
20240417144537 54 360 0.0 0.0 0.00 0.00 0.00 41 1000.9
20240417143038 52 242 1.0 4.0 0.00 0.00 0.00 44 1001.1
20240417141537 52 230 0.0 6.0 0.00 0.00 0.00 44 1000.9
20240417140031 51 240 0.0 4.0 0.00 0.00 0.00 47 1001.1
20240417134511 50 239 0.0 2.0 0.00 0.00 0.00 45 1001.0
20240417133007 50 360 0.0 4.0 0.00 0.01 0.00 45 1000.9
20240417131551 49 360 0.0 4.0 0.00 0.01 0.00 46 1001.1
20240417130049 49 360 2.0 5.0 0.00 0.01 0.00 45 1001.2
20240417124523 49 194 0.0 3.0 0.00 0.01 0.00 44 1001.0
20240417123020 50 217 0.0 4.0 0.00 0.06 0.00 44 1001.0
20240417121507 50 217 2.0 3.0 0.00 0.06 0.00 43 1001.1
20240417120008 50 217 0.0 1.0 0.00 0.06 0.00 42 1001.1
20240417114505 50 218 1.0 4.0 0.00 0.06 0.00 41 1001.3
20240417113004 51 182 1.0 4.0 0.00 0.28 0.00 40 1001.1
20240417111504 51 360 2.0 6.0 0.00 0.28 0.00 40 1001.1
20240417110008 51 186 1.0 4.0 0.00 0.28 0.00 40 1001.2
20240417104503 51 182 1.0 4.0 0.00 0.28 0.00 40 1001.4
20240417103002 51 360 0.0 4.0 0.00 0.28 0.00 40 1001.4
20240417101550 51 360 0.0 5.0 0.00 0.28 0.00 40 1001.4
20240417100052 50 178 0.0 3.0 0.00 0.28 0.00 41 1001.4
20240417094609 50 360 0.0 4.0 0.00 0.28 0.00 40 1001.3
20240417093057 50 176 0.0 7.0 0.00 0.28 0.00 42 1001.2
20240417091549 49 233 0.0 0.0 0.00 0.28 0.00 43 1001.3
20240417090047 49 233 1.0 5.0 0.00 0.28 0.00 43 1001.2
20240417084614 49 190 2.0 5.0 0.00 0.28 0.00 43 1001.1
20240417083046 49 360 3.0 7.0 0.00 0.28 0.00 43 1001.1
20240417081527 49 219 3.0 7.0 0.00 0.28 0.00 42 1001.2
20240417080024 49 234 4.0 6.0 0.00 0.28 0.00 43 1001.3
20240417074511 49 360 2.0 5.0 0.00 0.28 0.00 42 1001.0
20240417073008 50 360 2.0 6.0 0.00 0.28 0.00 40 1001.1
20240417071504 51 360 3.0 6.0 0.00 0.28 0.00 40 1000.9
20240417070003 51 213 3.0 7.0 0.00 0.28 0.00 39 1001.0
20240417064502 51 222 2.0 8.0 0.00 0.28 0.00 39 1001.0
20240417063100 52 212 3.0 7.0 0.00 0.28 0.00 39 1001.2
20240417061602 52 360 2.0 5.0 0.00 0.28 0.00 38 1001.1
20240417060055 53 234 1.0 5.0 0.00 0.28 0.00 37 1001.1
20240417054555 53 360 2.0 6.0 0.00 0.28 0.00 37 1001.0
20240417053047 54 235 2.0 5.0 0.00 0.28 0.28 36 1001.0
20240417051543 54 235 3.0 5.0 0.00 0.28 0.28 35 1000.9
20240417050045 54 244 0.0 6.0 0.00 0.28 0.28 35 1000.8
20240417044552 54 245 2.0 5.0 0.00 0.28 0.28 34 1000.9
20240417043040 54 360 0.0 0.0 0.00 0.28 0.28 35 1000.9
20240417041539 55 360 0.0 0.0 0.00 0.28 0.28 35 1001.0
20240417040039 55 360 0.0 0.0 0.00 0.28 0.28 35 1001.2
20240417034559 55 360 0.0 0.0 0.00 0.28 0.28 35 1000.9
20240417033030 56 360 0.0 3.0 0.00 0.28 0.28 35 1000.8
20240417031528 56 360 0.0 0.0 0.00 0.28 0.28 36 1000.8
20240417030028 57 360 0.0 0.0 0.00 0.28 0.28 36 1000.4
20240417024520 57 360 0.0 0.0 0.00 0.28 0.28 33 1000.1
20240417023017 58 360 0.0 0.0 0.00 0.28 0.28 32 999.8
20240417021535 59 360 0.0 3.0 0.00 0.28 0.28 31 999.4
20240417020011 60 360 1.0 4.0 0.00 0.28 0.28 30 999.0
20240417014508 60 360 2.0 6.0 0.00 0.28 0.28 29 998.6
20240417013057 61 275 3.0 7.0 0.00 0.28 0.28 29 998.5
20240417011556 62 360 3.0 11.0 0.00 0.28 0.28 28 998.3
20240417010101 62 360 8.0 17.0 0.00 0.28 0.28 28 998.2
20240417004609 63 360 9.0 17.0 0.00 0.28 0.28 28 998.2
20240417003055 64 360 4.0 10.0 0.00 0.28 0.28 27 998.3
20240417001557 63 360 7.0 13.0 0.00 0.28 0.28 27 998.1
20240417000113 64 360 10.0 18.0 0.00 0.28 0.28 26 998.1
20240416234553 64 360 14.0 20.0 0.00 0.28 0.28 27 998.1
20240416233041 64 360 12.0 23.0 0.00 0.28 0.28 26 997.8
20240416231539 64 360 10.0 21.0 0.00 0.28 0.28 28 997.9
20240416230039 64 360 10.0 21.0 0.00 0.28 0.28 27 997.6
20240416224546 64 360 12.0 21.0 0.00 0.28 0.28 26 997.4
20240416223040 64 360 14.0 24.0 0.00 0.28 0.28 26 997.8
20240416221536 64 360 15.0 22.0 0.00 0.28 0.28 26 997.8
20240416220036 63 360 16.0 26.0 0.00 0.28 0.28 28 997.6
20240416214536 63 360 19.0 30.0 0.00 0.28 0.28 28 997.7
20240416213019 63 360 15.0 22.0 0.00 0.28 0.28 29 997.8
20240416211519 63 360 17.0 28.0 0.00 0.28 0.28 28 997.7
20240416210031 63 360 14.0 26.0 0.00 0.28 0.28 30 997.8